sat.trackr.live / text

‹ back to catalog

STARLINK-4027

NORAD 52601 · 2022-052D

PAYLOAD ACTIVE UNKNOWN

§ Identity

Operator
Country
US
Launch date
2022-05-14
Launch site
AFETR
Launch vehicle
Mass (kg)
RCS (m²)

Purposes: comms

External: N2YO · Heavens-Above · Gunter

§ Orbital elements

Epoch: 2026-05-25T02:35:21.836832Z

Period
95.44 min
Inclination
53.2163°
Eccentricity
0.0001508
Mean motion
15.08833578 rev/d
Perigee alt
538.7 km
Apogee alt
540.8 km
Semi-major
6,917.9 km
B*
-1.1691e-5
RAAN
296.0637°
Arg perigee
82.0587°
Mean anomaly
278.0577°
Rev number
22,319

§ Raw data

STARLINK-40271 52601U 22052D   26145.10789163 -.00000474  00000+0 -11691-4 0  99962 52601  53.2163 296.0637 0001508  82.0587 278.0577 15.08833578223194

JSON: /api/v1/satellites/52601 · /tle

For live sub-satellite position, see the globe view (requires WebGL).

§ Visibility from observer

Set your observer location to see the next 7 days of passes ≥ 10°. The values pass through the URL so the page stays shareable.

No JS? Fill the form by hand. The geolocation button needs JavaScript.